QPF
0.00 0.00 0.00 0.00 0.00 0.00 0.00 0.00 0.00 0.00 0.00 0.00 0.00 0.00 0.00 0.00 0.00 0.00 0.00 0.00 0.00 0.00 0.00 0.00 0.00 0.00 0.00 0.00 0.00 0.00 0.00 0.00 0.01 0.01 0.01 0.00 0.00 0.00 0.01 0.00 0.00 0.00 0.00 0.00
0.00 0.00 0.00 0.00 0.00 0.00 0.00 0.00 0.00 0.00 0.00 0.00 0.00 0.00 0.00 0.00 0.00 0.00 0.00 0.00 0.00 0.00 0.00 0.00 0.00 0.00 0.00 0.00 0.00 0.00 0.00 0.00 0.00 0.00 0.00 0.00 0.00 0.01 0.00 0.00 0.00 0.00 0.00 0.00
0.00 0.00 0.00 0.00 0.00 0.00 0.00 0.00 0.00 0.00 0.00 0.00 0.00 0.00 0.00 0.00 0.00 0.00 0.00 0.00 0.00 0.00 0.00 0.00 0.00 0.00 0.00 0.00 0.00 0.00 0.00 0.00 0.00 0.00 0.00 0.00 0.00 0.00 0.00 0.00 0.00 0.00 0.00 0.00
0.00 0.00 0.00 0.00 0.00 0.00 0.00 0.00 0.00 0.00 0.00 0.00 0.00 0.00 0.00 0.00 0.00 0.00 0.00 0.00 0.00 0.00 0.00 0.00 0.00 0.00 0.00 0.00 0.00 0.00 0.00 0.00 0.00 0.00 0.00 0.00 0.00 0.00 0.00 0.00 0.00 0.00 0.00 0.00
0.00 0.00 0.00 0.00 0.00 0.00 0.00 0.00 0.00 0.00 0.00 0.00 0.00 0.00 0.00 0.00 0.00 0.00 0.00 0.00 0.00 0.00 0.00 0.00 0.00 0.00 0.00 0.00 0.00 0.00 0.00 0.00 0.00 0.00 0.00 0.00 0.00 0.00 0.00 0.00 0.00 0.00 0.00 0.00
0.00 0.00 0.00 0.00 0.00 0.00 0.00 0.00 0.00 0.00 0.00 0.00 0.00 0.00 0.00 0.00 0.00 0.00 0.00 0.00 0.00 0.00 0.00 0.00 0.00 0.00 0.00 0.00 0.00 0.00 0.00 0.00 0.00 0.00 0.00 0.00 0.00 0.00 0.00 0.00 0.00 0.00 0.00 0.00
0.00 0.00 0.00 0.00 0.00 0.00 0.00 0.00 0.00 0.00 0.00 0.00 0.00 0.00 0.00 0.00 0.00 0.00 0.00 0.00 0.00 0.00 0.00 0.00 0.00 0.00 0.00 0.00 0.00 0.00 0.00 0.00 0.00 0.00 0.00 0.00 0.00 0.00 0.00 0.00 0.00 0.00 0.00 0.00
0.00 0.00 0.00 0.00 0.00 0.00 0.00 0.00 0.00 0.00 0.00 0.00 0.00 0.00 0.00 0.00 0.00 0.00 0.00 0.00 0.00 0.00 0.00 0.00 0.00 0.00 0.00 0.00 0.00 0.00 0.00 0.00 0.00 0.00 0.00 0.00 0.00 0.00 0.00 0.00 0.00 0.00 0.00 0.00
0.00 0.00 0.00 0.00 0.00 0.00 0.00 0.00 0.00 0.00 0.00 0.00 0.00 0.00 0.00 0.00 0.00 0.00 0.00 0.00 0.00 0.00 0.00 0.00 0.00 0.00 0.00 0.00 0.00 0.00 0.00 0.00 0.00 0.00 0.00 0.00 0.00 0.00 0.00 0.00 0.00 0.00 0.00 0.00
0.00 0.00 0.00 0.00 0.00 0.00 0.00 0.00 0.00 0.00 0.00 0.00 0.00 0.00 0.00 0.00 0.00 0.00 0.00 0.00 0.00 0.00 0.00 0.00 0.00 0.00 0.00 0.00 0.00 0.00 0.00 0.00 0.00 0.00 0.00 0.00 0.00 0.00 0.00 0.00 0.00 0.00 0.00 0.00
0.00 0.00 0.00 0.00 0.00 0.00 0.00 0.00 0.00 0.00 0.00 0.00 0.00 0.00 0.00 0.00 0.00 0.00 0.00 0.00 0.00 0.00 0.00 0.00 0.00 0.00 0.00 0.00 0.00 0.00 0.00 0.00 0.00 0.00 0.00 0.00 0.00 0.00 0.00 0.00 0.00 0.00 0.00 0.00
0.00 0.00 0.00 0.00 0.00 0.00 0.00 0.00 0.00 0.00 0.00 0.00 0.00 0.00 0.00 0.00 0.00 0.00 0.00 0.00 0.00 0.00 0.00 0.00 0.00 0.00 0.00 0.00 0.00 0.00 0.00 0.00 0.00 0.00 0.00 0.00 0.00 0.00 0.00 0.00 0.00 0.00 0.00 0.00
0.00 0.00 0.00 0.00 0.00 0.00 0.00 0.00 0.00 0.00 0.00 0.00 0.00 0.00 0.00 0.00 0.00 0.00 0.00 0.00 0.00 0.00 0.00 0.00 0.00 0.00 0.00 0.00 0.00 0.00 0.00 0.00 0.00 0.00 0.00 0.00 0.00 0.00 0.00 0.00 0.00 0.00 0.00 0.00
0.00 0.00 0.00 0.00 0.00 0.00 0.00 0.00 0.00 0.00 0.00 0.00 0.00 0.00 0.00 0.00 0.00 0.00 0.00 0.00 0.00 0.00 0.00 0.00 0.00 0.00 0.00 0.00 0.00 0.00 0.00 0.00 0.00 0.00 0.00 0.00 0.00 0.00 0.00 0.00 0.00 0.00 0.00 0.00
0.00 0.00 0.00 0.00 0.00 0.00 0.00 0.00 0.00 0.00 0.00 0.00 0.00 0.00 0.00 0.00 0.00 0.00 0.00 0.00 0.00 0.00 0.00 0.00 0.00 0.00 0.00 0.00 0.00 0.00 0.00 0.00 0.00 0.00 0.00 0.00 0.00 0.00 0.00 0.00 0.00 0.00 0.00 0.00
0.00 0.00 0.00 0.00 0.00 0.00 0.00 0.00 0.00 0.00 0.00 0.00 0.00 0.00 0.00 0.00 0.00 0.00 0.00 0.00 0.00 0.00 0.00 0.00 0.00 0.00 0.00 0.00 0.00 0.00 0.00 0.00 0.00 0.00 0.00 0.00 0.00 0.00 0.00 0.00 0.00 0.00 0.00 0.00
0.00 0.00 0.00 0.00 0.00 0.00 0.00 0.00 0.00 0.00 0.00 0.00 0.00 0.00 0.00 0.00 0.00 0.00 0.00 0.00 0.00 0.00 0.00 0.00 0.00 0.00 0.00 0.00 0.00 0.00 0.00 0.00 0.00 0.00 0.00 0.00 0.00 0.00 0.00 0.00 0.00 0.00 0.00 0.00
0.00 0.00 0.00 0.00 0.00 0.00 0.00 0.00 0.00 0.00 0.00 0.00 0.00 0.00 0.00 0.00 0.00 0.00 0.00 0.00 0.00 0.00 0.00 0.00 0.00 0.00 0.00 0.00 0.00 0.00 0.00 0.00 0.00 0.00 0.00 0.00 0.00 0.00 0.00 0.00 0.00 0.00 0.00 0.00
0.00 0.00 0.00 0.00 0.00 0.00 0.00 0.00 0.00 0.00 0.00 0.00 0.00 0.00 0.00 0.00 0.00 0.00 0.00 0.00 0.00 0.00 0.00 0.00 0.00 0.00 0.00 0.00 0.00 0.00 0.00 0.00 0.00 0.00 0.00 0.00 0.00 0.00 0.00 0.00 0.00 0.00 0.00 0.00
0.00 0.00 0.00 0.00 0.00 0.00 0.00 0.00 0.00 0.00 0.00 0.00 0.00 0.00 0.00 0.00 0.00 0.00 0.00 0.00 0.00 0.00 0.00 0.00 0.00 0.00 0.00 0.00 0.00 0.00 0.00 0.00 0.00 0.00 0.00 0.00 0.00 0.00 0.00 0.00 0.00 0.00 0.00 0.00
0.00 0.00 0.00 0.00 0.00 0.00 0.00 0.00 0.00 0.00 0.00 0.00 0.00 0.00 0.00 0.00 0.00 0.00 0.00 0.00 0.00 0.00 0.00 0.00 0.00 0.00 0.00 0.00 0.00 0.00 0.00 0.00 0.00 0.00 0.00 0.00 0.00 0.00 0.00 0.00 0.00 0.00 0.00 0.00
0.00 0.00 0.00 0.00 0.00 0.00 0.00 0.00 0.00 0.00 0.00 0.00 0.00 0.00 0.00 0.00 0.00 0.00 0.00 0.00 0.00 0.00 0.00 0.00 0.00 0.00 0.00 0.00 0.00 0.00 0.00 0.00 0.00 0.00 0.00 0.00 0.00 0.00 0.00 0.00 0.00 0.00 0.00 0.00
0.00 0.00 0.00 0.00 0.00 0.00 0.00 0.00 0.00 0.00 0.00 0.00 0.00 0.00 0.00 0.00 0.00 0.00 0.00 0.00 0.00 0.00 0.00 0.00 0.00 0.00 0.00 0.00 0.00 0.00 0.00 0.00 0.00 0.00 0.00 0.00 0.00 0.00 0.00 0.00 0.00 0.00 0.00 0.00
0.00 0.00 0.00 0.00 0.00 0.00 0.00 0.00 0.00 0.00 0.00 0.00 0.00 0.00 0.00 0.00 0.00 0.00 0.00 0.00 0.00 0.00 0.00 0.00 0.00 0.00 0.00 0.00 0.00 0.00 0.00 0.00 0.00 0.00 0.00 0.00 0.00 0.00 0.00 0.00 0.00 0.00 0.00 0.00
0.00 0.00 0.00 0.00 0.00 0.00 0.00 0.00 0.00 0.00 0.00 0.00 0.00 0.00 0.00 0.00 0.00 0.00 0.00 0.00 0.00 0.00 0.00 0.00 0.00 0.00 0.00 0.00 0.00 0.00 0.00 0.00 0.00 0.00 0.00 0.00 0.00 0.00 0.00 0.00 0.00 0.00 0.00 0.00
0.00 0.00 0.00 0.00 0.00 0.00 0.00 0.00 0.00 0.00 0.00 0.00 0.00 0.00 0.00 0.00 0.00 0.00 0.00 0.00 0.00 0.00 0.00 0.00 0.00 0.00 0.00 0.00 0.00 0.00 0.00 0.00 0.00 0.00 0.00 0.00 0.00 0.00 0.00 0.00 0.00 0.00 0.00 0.00
0.02 0.01 0.00 0.00 0.00 0.00 0.00 0.00 0.00 0.00 0.00 0.00 0.00 0.00 0.00 0.00 0.00 0.00 0.00 0.00 0.00 0.00 0.00 0.00 0.00 0.00 0.00 0.00 0.00 0.00 0.00 0.00 0.00 0.00 0.00 0.00 0.00 0.00 0.00 0.00 0.00 0.00 0.00 0.00
MSLP
1022.65 1022.91 1023.14 1023.33 1023.49 1023.62 1023.72 1023.79 1023.82 1023.81 1023.75 1023.64 1023.47 1023.24 1022.94 1022.60 1022.21 1021.79 1021.37 1020.95 1020.56 1020.19 1019.87 1019.58 1019.31 1019.07 1018.84 1018.60 1018.36 1018.10 1017.82 1017.53 1017.22 1016.92 1016.63 1016.35 1016.10 1015.89 1015.70 1015.56 1015.44 1015.35 1015.26 1015.17
1022.52 1022.72 1022.87 1022.97 1023.04 1023.08 1023.11 1023.13 1023.15 1023.16 1023.14 1023.10 1023.00 1022.85 1022.63 1022.35 1022.01 1021.62 1021.21 1020.79 1020.39 1020.02 1019.70 1019.42 1019.19 1019.00 1018.82 1018.66 1018.49 1018.30 1018.09 1017.85 1017.59 1017.33 1017.06 1016.80 1016.56 1016.36 1016.18 1016.04 1015.92 1015.82 1015.73 1015.62
1022.33 1022.44 1022.48 1022.47 1022.43 1022.37 1022.32 1022.30 1022.30 1022.32 1022.36 1022.39 1022.39 1022.34 1022.22 1022.02 1021.75 1021.41 1021.02 1020.61 1020.21 1019.83 1019.50 1019.23 1019.02 1018.87 1018.75 1018.65 1018.55 1018.44 1018.31 1018.14 1017.95 1017.73 1017.51 1017.28 1017.06 1016.87 1016.70 1016.55 1016.42 1016.30 1016.17 1016.03
1022.08 1022.08 1022.01 1021.87 1021.71 1021.55 1021.42 1021.35 1021.33 1021.38 1021.47 1021.59 1021.69 1021.75 1021.74 1021.65 1021.46 1021.18 1020.83 1020.44 1020.04 1019.66 1019.32 1019.05 1018.85 1018.71 1018.63 1018.59 1018.56 1018.52 1018.47 1018.38 1018.26 1018.12 1017.94 1017.76 1017.58 1017.40 1017.23 1017.08 1016.93 1016.78 1016.62 1016.43
1021.76 1021.64 1021.45 1021.19 1020.92 1020.67 1020.47 1020.36 1020.34 1020.41 1020.56 1020.76 1020.96 1021.13 1021.24 1021.25 1021.16 1020.95 1020.66 1020.30 1019.91 1019.53 1019.19 1018.91 1018.71 1018.58 1018.52 1018.51 1018.53 1018.56 1018.58 1018.57 1018.52 1018.45 1018.34 1018.22 1018.07 1017.92 1017.76 1017.60 1017.44 1017.26 1017.05 1016.82
1021.32 1021.09 1020.79 1020.44 1020.09 1019.77 1019.53 1019.39 1019.37 1019.47 1019.67 1019.95 1020.25 1020.52 1020.74 1020.86 1020.86 1020.74 1020.52 1020.21 1019.85 1019.48 1019.14 1018.86 1018.65 1018.51 1018.46 1018.46 1018.51 1018.58 1018.65 1018.70 1018.73 1018.72 1018.68 1018.61 1018.51 1018.39 1018.26 1018.10 1017.92 1017.71 1017.48 1017.21
1020.70 1020.40 1020.02 1019.62 1019.21 1018.86 1018.61 1018.47 1018.47 1018.60 1018.86 1019.19 1019.57 1019.94 1020.25 1020.46 1020.56 1020.53 1020.39 1020.14 1019.83 1019.50 1019.18 1018.89 1018.67 1018.53 1018.46 1018.46 1018.52 1018.60 1018.70 1018.79 1018.87 1018.92 1018.94 1018.92 1018.87 1018.79 1018.68 1018.54 1018.36 1018.14 1017.88 1017.58
1019.89 1019.54 1019.13 1018.71 1018.31 1017.97 1017.73 1017.62 1017.65 1017.82 1018.12 1018.50 1018.94 1019.37 1019.75 1020.05 1020.24 1020.30 1020.24 1020.07 1019.83 1019.54 1019.26 1018.99 1018.78 1018.62 1018.54 1018.53 1018.57 1018.65 1018.75 1018.86 1018.97 1019.06 1019.12 1019.15 1019.14 1019.10 1019.02 1018.90 1018.73 1018.51 1018.25 1017.95
1018.87 1018.51 1018.12 1017.73 1017.38 1017.10 1016.91 1016.86 1016.94 1017.15 1017.47 1017.89 1018.35 1018.82 1019.26 1019.61 1019.87 1020.01 1020.03 1019.95 1019.78 1019.57 1019.34 1019.11 1018.91 1018.76 1018.67 1018.64 1018.66 1018.72 1018.81 1018.91 1019.02 1019.13 1019.22 1019.28 1019.31 1019.31 1019.26 1019.17 1019.03 1018.83 1018.58 1018.29
1017.69 1017.35 1017.02 1016.70 1016.44 1016.26 1016.16 1016.18 1016.32 1016.57 1016.92 1017.35 1017.82 1018.30 1018.74 1019.13 1019.43 1019.63 1019.73 1019.73 1019.66 1019.52 1019.36 1019.18 1019.03 1018.90 1018.80 1018.76 1018.75 1018.79 1018.85 1018.94 1019.04 1019.14 1019.24 1019.33 1019.39 1019.42 1019.41 1019.36 1019.25 1019.09 1018.88 1018.62
1016.41 1016.13 1015.89 1015.69 1015.54 1015.48 1015.50 1015.61 1015.81 1016.10 1016.47 1016.89 1017.34 1017.80 1018.23 1018.62 1018.93 1019.17 1019.33 1019.40 1019.41 1019.36 1019.28 1019.17 1019.07 1018.97 1018.89 1018.84 1018.82 1018.82 1018.86 1018.92 1019.00 1019.10 1019.20 1019.30 1019.38 1019.44 1019.47 1019.46 1019.40 1019.29 1019.12 1018.91
1015.15 1014.94 1014.80 1014.72 1014.71 1014.78 1014.91 1015.12 1015.39 1015.72 1016.10 1016.50 1016.93 1017.34 1017.74 1018.10 1018.40 1018.66 1018.85 1018.98 1019.05 1019.08 1019.08 1019.04 1018.99 1018.94 1018.88 1018.84 1018.81 1018.80 1018.81 1018.84 1018.90 1018.98 1019.08 1019.18 1019.28 1019.37 1019.44 1019.47 1019.46 1019.41 1019.30 1019.15
1014.00 1013.86 1013.82 1013.85 1013.96 1014.15 1014.40 1014.70 1015.04 1015.41 1015.79 1016.18 1016.56 1016.93 1017.28 1017.59 1017.88 1018.12 1018.32 1018.49 1018.62 1018.70 1018.76 1018.79 1018.80 1018.79 1018.76 1018.73 1018.70 1018.68 1018.68 1018.69 1018.73 1018.80 1018.89 1018.99 1019.10 1019.22 1019.32 1019.39 1019.44 1019.44 1019.40 1019.31
1013.04 1012.95 1012.97 1013.08 1013.29 1013.58 1013.92 1014.30 1014.70 1015.10 1015.50 1015.88 1016.23 1016.56 1016.86 1017.13 1017.38 1017.60 1017.81 1017.98 1018.14 1018.27 1018.38 1018.46 1018.51 1018.54 1018.54 1018.53 1018.50 1018.48 1018.46 1018.47 1018.49 1018.54 1018.62 1018.73 1018.85 1018.99 1019.12 1019.23 1019.32 1019.38 1019.40 1019.38
1012.30 1012.22 1012.25 1012.41 1012.66 1013.00 1013.40 1013.84 1014.29 1014.73 1015.14 1015.53 1015.88 1016.18 1016.46 1016.70 1016.92 1017.13 1017.32 1017.50 1017.67 1017.83 1017.96 1018.08 1018.16 1018.22 1018.25 1018.25 1018.23 1018.21 1018.19 1018.18 1018.19 1018.23 1018.31 1018.41 1018.54 1018.68 1018.83 1018.98 1019.10 1019.21 1019.28 1019.32
1011.78 1011.66 1011.66 1011.78 1012.03 1012.38 1012.79 1013.26 1013.74 1014.21 1014.66 1015.06 1015.43 1015.74 1016.02 1016.26 1016.48 1016.68 1016.87 1017.05 1017.23 1017.40 1017.55 1017.69 1017.79 1017.87 1017.91 1017.93 1017.92 1017.90 1017.87 1017.86 1017.86 1017.90 1017.96 1018.05 1018.18 1018.32 1018.48 1018.64 1018.79 1018.93 1019.04 1019.12
1011.48 1011.24 1011.14 1011.19 1011.36 1011.66 1012.05 1012.50 1012.99 1013.49 1013.97 1014.42 1014.82 1015.18 1015.48 1015.75 1015.99 1016.21 1016.41 1016.61 1016.80 1016.99 1017.15 1017.30 1017.42 1017.52 1017.57 1017.60 1017.60 1017.58 1017.55 1017.53 1017.53 1017.55 1017.60 1017.68 1017.79 1017.93 1018.08 1018.23 1018.39 1018.54 1018.67 1018.78
1011.35 1010.96 1010.71 1010.61 1010.66 1010.85 1011.17 1011.57 1012.05 1012.55 1013.06 1013.56 1014.01 1014.42 1014.79 1015.12 1015.40 1015.67 1015.91 1016.14 1016.36 1016.57 1016.76 1016.92 1017.06 1017.17 1017.24 1017.28 1017.29 1017.28 1017.25 1017.23 1017.21 1017.22 1017.25 1017.31 1017.40 1017.51 1017.64 1017.78 1017.93 1018.07 1018.20 1018.33
1011.40 1010.82 1010.38 1010.09 1009.97 1010.01 1010.21 1010.54 1010.96 1011.45 1011.97 1012.49 1013.00 1013.48 1013.91 1014.31 1014.67 1015.00 1015.30 1015.58 1015.85 1016.09 1016.32 1016.52 1016.69 1016.82 1016.92 1016.97 1017.00 1016.99 1016.97 1016.95 1016.93 1016.92 1016.93 1016.96 1017.02 1017.10 1017.19 1017.30 1017.42 1017.54 1017.66 1017.79
1011.62 1010.84 1010.19 1009.70 1009.39 1009.26 1009.31 1009.52 1009.86 1010.30 1010.80 1011.33 1011.87 1012.39 1012.89 1013.35 1013.78 1014.18 1014.55 1014.89 1015.22 1015.52 1015.79 1016.04 1016.25 1016.43 1016.56 1016.65 1016.70 1016.71 1016.70 1016.68 1016.66 1016.63 1016.62 1016.63 1016.65 1016.70 1016.75 1016.82 1016.90 1016.99 1017.09 1017.19
1012.02 1011.07 1010.23 1009.55 1009.05 1008.74 1008.63 1008.70 1008.92 1009.27 1009.71 1010.21 1010.74 1011.27 1011.79 1012.30 1012.78 1013.23 1013.66 1014.07 1014.46 1014.82 1015.16 1015.46 1015.73 1015.96 1016.14 1016.27 1016.35 1016.40 1016.41 1016.40 1016.37 1016.34 1016.32 1016.30 1016.29 1016.30 1016.32 1016.34 1016.38 1016.44 1016.50 1016.58
1012.60 1011.53 1010.55 1009.72 1009.06 1008.59 1008.32 1008.24 1008.33 1008.55 1008.89 1009.30 1009.77 1010.26 1010.77 1011.27 1011.76 1012.24 1012.70 1013.16 1013.60 1014.02 1014.41 1014.78 1015.10 1015.39 1015.62 1015.80 1015.93 1016.01 1016.05 1016.06 1016.04 1016.01 1015.98 1015.94 1015.92 1015.89 1015.88 1015.87 1015.88 1015.89 1015.92 1015.97
1013.36 1012.23 1011.18 1010.26 1009.49 1008.90 1008.49 1008.26 1008.20 1008.28 1008.48 1008.76 1009.12 1009.52 1009.94 1010.38 1010.84 1011.30 1011.76 1012.22 1012.69 1013.14 1013.58 1014.00 1014.38 1014.71 1015.00 1015.22 1015.40 1015.52 1015.59 1015.62 1015.62 1015.61 1015.57 1015.54 1015.50 1015.46 1015.42 1015.39 1015.37 1015.36 1015.36 1015.38
1014.22 1013.13 1012.09 1011.15 1010.33 1009.67 1009.16 1008.81 1008.61 1008.53 1008.57 1008.69 1008.89 1009.14 1009.44 1009.77 1010.13 1010.52 1010.94 1011.37 1011.82 1012.28 1012.74 1013.17 1013.58 1013.96 1014.28 1014.55 1014.76 1014.91 1015.02 1015.08 1015.10 1015.10 1015.08 1015.05 1015.01 1014.97 1014.93 1014.89 1014.86 1014.83 1014.81 1014.81
1015.11 1014.12 1013.17 1012.29 1011.50 1010.82 1010.26 1009.82 1009.50 1009.28 1009.15 1009.10 1009.12 1009.20 1009.33 1009.51 1009.74 1010.01 1010.34 1010.70 1011.09 1011.51 1011.95 1012.38 1012.79 1013.17 1013.51 1013.80 1014.04 1014.22 1014.34 1014.42 1014.47 1014.49 1014.49 1014.47 1014.45 1014.42 1014.39 1014.36 1014.32 1014.29 1014.27 1014.26
1015.89 1015.08 1014.28 1013.52 1012.81 1012.18 1011.62 1011.14 1010.74 1010.41 1010.13 1009.92 1009.76 1009.66 1009.61 1009.62 1009.68 1009.82 1010.01 1010.26 1010.57 1010.92 1011.30 1011.68 1012.06 1012.43 1012.76 1013.04 1013.27 1013.46 1013.60 1013.69 1013.76 1013.79 1013.81 1013.82 1013.82 1013.81 1013.80 1013.78 1013.76 1013.74 1013.72 1013.70
1016.43 1015.83 1015.22 1014.63 1014.06 1013.52 1013.02 1012.55 1012.11 1011.70 1011.32 1010.98 1010.67 1010.40 1010.19 1010.03 1009.94 1009.92 1009.98 1010.10 1010.30 1010.55 1010.84 1011.15 1011.47 1011.78 1012.07 1012.32 1012.53 1012.71 1012.84 1012.94 1013.01 1013.06 1013.10 1013.12 1013.14 1013.16 1013.17 1013.18 1013.18 1013.17 1013.16 1013.14
Thickness
5700 5695 5690 5684 5676 5670 5669 5669 5665 5662 5655 5657 5655 5652 5650 5650 5651 5650 5651 5651 5651 5649 5649 5648 5645 5644 5641 5639 5637 5637 5636 5634 5632 5633 5632 5632 5632 5633 5635 5636 5638 5638 5640 5642
5699 5696 5693 5687 5686 5679 5673 5670 5667 5663 5661 5668 5664 5660 5657 5656 5655 5655 5655 5655 5654 5655 5654 5652 5650 5648 5646 5643 5641 5640 5637 5635 5634 5634 5632 5631 5631 5631 5632 5632 5632 5631 5631 5632
5708 5699 5693 5696 5703 5691 5685 5682 5677 5670 5674 5675 5667 5664 5663 5662 5660 5659 5659 5658 5658 5658 5657 5656 5655 5653 5651 5647 5645 5643 5641 5638 5636 5634 5632 5631 5630 5629 5629 5628 5626 5624 5623 5623
5710 5702 5698 5716 5715 5707 5696 5692 5688 5685 5683 5679 5675 5673 5671 5669 5666 5665 5664 5663 5663 5663 5662 5662 5661 5659 5655 5652 5649 5647 5644 5640 5637 5634 5633 5631 5629 5628 5627 5625 5622 5618 5616 5615
5711 5706 5711 5717 5713 5708 5699 5699 5703 5694 5690 5686 5683 5678 5678 5678 5675 5672 5669 5668 5667 5667 5667 5667 5665 5663 5662 5658 5654 5650 5645 5641 5639 5636 5633 5631 5628 5626 5624 5622 5619 5616 5611 5610
5710 5706 5713 5724 5726 5720 5709 5704 5719 5709 5699 5693 5685 5677 5683 5684 5680 5677 5674 5673 5671 5671 5671 5669 5666 5665 5664 5661 5657 5652 5647 5643 5639 5637 5633 5630 5627 5624 5622 5619 5616 5613 5609 5606
5712 5712 5727 5735 5726 5718 5703 5721 5728 5719 5711 5702 5693 5695 5693 5688 5684 5681 5678 5676 5674 5674 5672 5670 5669 5668 5667 5664 5659 5653 5648 5645 5641 5637 5634 5629 5626 5622 5620 5617 5614 5612 5608 5605
5718 5716 5727 5732 5724 5722 5733 5736 5732 5725 5719 5710 5705 5701 5694 5690 5687 5684 5681 5679 5677 5676 5675 5673 5671 5670 5669 5664 5660 5655 5650 5646 5642 5638 5634 5630 5625 5622 5619 5616 5613 5610 5607 5604
5734 5742 5748 5742 5743 5746 5745 5740 5736 5730 5723 5716 5708 5702 5697 5693 5690 5688 5685 5683 5680 5678 5676 5676 5674 5671 5669 5665 5662 5658 5653 5647 5643 5639 5634 5630 5626 5623 5620 5616 5613 5610 5607 5603
5736 5749 5750 5746 5748 5746 5744 5743 5740 5735 5728 5720 5712 5707 5701 5697 5694 5690 5688 5686 5683 5681 5680 5679 5676 5673 5671 5668 5665 5661 5656 5651 5646 5643 5637 5632 5627 5625 5621 5617 5613 5610 5606 5603
5739 5754 5752 5749 5749 5749 5745 5743 5740 5736 5731 5724 5718 5711 5706 5701 5697 5694 5691 5688 5685 5683 5681 5680 5678 5676 5673 5671 5668 5664 5659 5654 5650 5645 5640 5636 5631 5624 5621 5615 5610 5607 5606 5604
5749 5764 5761 5762 5762 5755 5748 5743 5740 5735 5731 5727 5722 5716 5710 5705 5701 5697 5694 5691 5688 5686 5684 5683 5681 5679 5676 5673 5671 5668 5663 5659 5654 5649 5644 5640 5635 5630 5620 5615 5610 5606 5603 5600
5764 5762 5762 5762 5760 5757 5752 5748 5744 5739 5734 5728 5724 5720 5714 5709 5704 5700 5696 5693 5690 5688 5686 5685 5683 5680 5678 5676 5674 5671 5668 5663 5658 5653 5649 5644 5640 5636 5631 5622 5615 5610 5607 5603
5757 5753 5754 5756 5757 5755 5753 5750 5746 5741 5737 5733 5727 5722 5717 5712 5707 5703 5699 5697 5693 5690 5688 5686 5684 5683 5680 5678 5676 5674 5671 5665 5661 5657 5653 5650 5646 5641 5636 5632 5628 5623 5615 5609
5751 5751 5757 5758 5756 5752 5749 5747 5742 5739 5736 5733 5729 5723 5718 5713 5709 5706 5704 5700 5695 5691 5689 5687 5685 5684 5682 5680 5678 5676 5674 5670 5666 5663 5659 5655 5651 5646 5642 5637 5634 5629 5626 5620
5751 5749 5748 5748 5748 5748 5745 5744 5741 5739 5737 5733 5727 5723 5720 5716 5713 5709 5706 5701 5696 5693 5692 5689 5687 5686 5683 5680 5679 5678 5675 5670 5667 5666 5664 5660 5656 5652 5648 5644 5640 5636 5633 5628
5741 5743 5741 5741 5745 5746 5745 5745 5745 5743 5739 5734 5730 5726 5721 5716 5712 5709 5706 5703 5699 5697 5695 5691 5689 5687 5683 5681 5680 5680 5678 5675 5666 5668 5668 5665 5662 5658 5655 5650 5646 5643 5639 5633
5739 5745 5748 5749 5749 5748 5746 5745 5744 5743 5740 5737 5731 5726 5721 5716 5713 5711 5709 5705 5701 5698 5696 5694 5692 5688 5685 5682 5680 5681 5680 5678 5675 5674 5671 5668 5666 5664 5660 5656 5653 5649 5645 5640
5725 5732 5738 5743 5746 5747 5747 5745 5743 5742 5740 5736 5730 5726 5722 5719 5717 5714 5711 5706 5701 5699 5699 5697 5691 5688 5686 5683 5679 5678 5679 5678 5676 5675 5673 5669 5666 5667 5665 5662 5659 5656 5653 5649
5708 5718 5726 5733 5737 5740 5742 5742 5740 5738 5737 5734 5730 5725 5722 5720 5718 5714 5710 5706 5705 5705 5704 5700 5694 5690 5688 5685 5678 5680 5679 5677 5677 5676 5675 5674 5672 5671 5669 5667 5664 5662 5659 5656
5690 5701 5711 5719 5726 5731 5734 5736 5734 5733 5731 5729 5727 5724 5721 5719 5717 5713 5708 5706 5707 5705 5702 5695 5694 5691 5688 5685 5677 5679 5679 5677 5676 5676 5676 5675 5675 5674 5672 5671 5669 5666 5664 5662
5670 5681 5693 5703 5712 5719 5724 5727 5727 5726 5725 5723 5722 5720 5718 5716 5714 5711 5709 5707 5709 5702 5699 5696 5694 5691 5688 5682 5681 5679 5678 5676 5675 5675 5675 5674 5674 5674 5674 5673 5672 5670 5668 5666
5646 5658 5671 5683 5694 5703 5710 5713 5716 5717 5716 5716 5715 5714 5713 5712 5711 5707 5704 5705 5704 5698 5696 5696 5693 5688 5683 5680 5681 5679 5677 5675 5675 5675 5674 5673 5674 5673 5673 5673 5672 5671 5670 5668
5619 5632 5644 5657 5670 5679 5687 5693 5697 5701 5703 5704 5705 5705 5705 5703 5703 5704 5704 5701 5699 5694 5693 5692 5687 5683 5678 5680 5679 5677 5676 5674 5673 5673 5672 5672 5672 5672 5672 5671 5671 5671 5670 5669
5590 5602 5614 5625 5637 5647 5657 5666 5674 5678 5682 5686 5689 5690 5692 5694 5694 5694 5693 5692 5689 5685 5686 5685 5680 5677 5676 5677 5676 5675 5674 5672 5671 5671 5669 5669 5669 5669 5669 5669 5669 5669 5668 5668
5558 5570 5580 5593 5603 5614 5627 5637 5646 5654 5660 5665 5668 5671 5674 5676 5677 5679 5679 5680 5679 5676 5678 5678 5676 5671 5672 5673 5672 5671 5670 5668 5666 5663 5664 5664 5665 5665 5665 5665 5665 5665 5665 5665
5527 5537 5548 5560 5572 5582 5593 5605 5615 5624 5632 5640 5645 5650 5654 5657 5660 5662 5663 5665 5666 5666 5667 5667 5668 5667 5667 5667 5666 5665 5664 5663 5662 5661 5660 5660 5659 5660 5660 5660 5660 5661 5661 5661